EW7837 Weather Reports


time (UTC)temp
F
wind
direction
speed
knots
gust
knots
rain 1hr
in
rain 24hr
in
rain mn
in
humidity
%
barometer
mb
20260506011556 65 263 0.0 0.0 0.00 0.00 0.15 67 1012.1
20260506010054 66 261 0.0 0.0 0.00 0.00 0.15 65 1012.0
20260506004554 67 263 0.0 0.0 0.00 0.00 0.15 64 1011.7
20260506003051 68 259 0.0 0.0 0.00 0.00 0.15 63 1011.7
20260506001551 68 232 0.0 0.0 0.00 0.00 0.15 61 1011.7
20260506000048 68 266 0.0 0.0 0.00 0.00 0.15 61 1011.7
20260505234550 68 259 0.0 0.0 0.00 0.00 0.15 61 1011.8
20260505233047 69 265 0.0 0.0 0.00 0.00 0.15 60 1011.9
20260505231559 69 250 0.0 0.0 0.00 0.00 0.15 60 1012.1
20260505230037 69 265 0.0 0.0 0.00 0.00 0.15 61 1012.1
20260505224517 69 263 0.9 0.0 0.00 0.00 0.15 60 1012.2
20260505223016 69 271 1.7 0.0 0.00 0.00 0.15 60 1012.3
20260505221516 69 277 0.9 0.0 0.00 0.00 0.15 60 1012.2
20260505220012 69 279 0.9 0.0 0.00 0.00 0.15 59 1012.3
20260505214512 69 279 0.9 0.0 0.00 0.00 0.15 56 1012.5
20260505213012 69 263 0.9 0.0 0.00 0.00 0.15 59 1012.6
20260505211513 69 272 0.9 0.0 0.00 0.00 0.15 63 1012.6
20260505210012 69 257 0.9 0.0 0.00 0.00 0.15 63 1012.7
20260505204506 68 277 0.9 0.0 0.00 0.00 0.15 64 1012.7
20260505203006 69 268 0.9 0.0 0.00 0.00 0.15 63 1012.7
20260505201507 69 277 0.9 0.0 0.00 0.00 0.15 62 1012.7
20260505200002 68 242 0.0 0.0 0.00 0.00 0.15 63 1013.0
20260505194501 69 275 0.0 0.0 0.00 0.00 0.15 63 1013.1
20260505193059 68 261 0.0 0.0 0.00 0.00 0.15 66 1013.0
20260505191611 67 261 0.9 0.0 0.00 0.00 0.15 65 1013.2
20260505190053 67 271 0.0 0.0 0.00 0.00 0.15 67 1013.1
20260505184551 67 270 0.0 0.0 0.00 0.00 0.15 68 1013.0
20260505183049 65 271 0.0 0.0 0.00 0.00 0.15 72 1012.9
20260505181520 65 267 0.0 0.0 0.00 0.00 0.15 73 1012.8
20260505180037 65 275 0.9 0.0 0.00 0.00 0.15 74 1012.7
20260505174510 63 257 0.0 0.0 0.00 0.00 0.15 78 1012.7
20260505173009 63 256 0.0 0.0 0.00 0.00 0.15 81 1012.4
20260505171509 63 264 0.0 0.0 0.00 0.00 0.15 81 1012.5
20260505170009 63 264 0.0 0.0 0.00 0.00 0.15 81 1012.3
20260505164541 63 264 0.0 0.0 0.00 0.00 0.15 84 1012.2
20260505163036 62 264 0.0 0.0 0.00 0.00 0.15 85 1012.2
20260505161534 61 264 0.0 0.0 0.00 0.00 0.15 89 1012.2
20260505153030 59 264 0.0 0.0 0.00 0.00 0.15 91 1012.1
20260505151527 59 264 0.0 0.0 0.00 0.00 0.15 92 1011.8
20260505124559 58 264 0.0 0.0 0.00 0.00 0.12 92 1010.6
20260505123101 58 264 0.0 0.0 0.00 0.00 0.11 92 1010.6
20260505121555 58 264 0.0 0.0 0.00 0.00 0.11 92 1010.6
20260505120056 59 264 0.0 0.0 0.00 0.00 0.11 92 1010.6
20260505114541 59 264 0.0 0.0 0.00 0.00 0.11 92 1010.4
20260505113031 59 264 0.0 0.0 0.00 0.00 0.11 92 1010.5
20260505111529 59 264 0.0 0.0 0.00 0.00 0.10 92 1010.6
20260505101609 59 264 0.0 0.0 0.00 0.00 0.10 91 1010.6
20260505100105 59 264 0.0 0.0 0.00 0.00 0.10 91 1010.6
20260505094551 59 264 0.0 0.0 0.00 0.00 0.10 91 1010.8
20260505093101 59 264 0.0 0.0 0.00 0.00 0.10 91 1011.1
20260505091551 58 264 0.0 0.0 0.00 0.00 0.10 90 1011.1
20260505090049 58 264 0.0 0.0 0.00 0.00 0.10 90 1011.1
20260505084517 59 264 0.0 0.0 0.00 0.00 0.10 90 1011.2
20260505083021 59 264 0.0 0.0 0.00 0.00 0.10 90 1011.4
20260505081629 59 264 0.0 0.0 0.00 0.00 0.10 89 1011.7
20260505080056 59 264 0.0 0.0 0.00 0.00 0.10 89 1011.7
20260505074546 59 264 0.0 0.0 0.00 0.00 0.10 89 1011.7
20260505073031 59 264 0.0 0.0 0.00 0.00 0.10 87 1011.7
20260505071512 60 264 0.0 0.0 0.00 0.00 0.03 86 1011.6
20260505070013 60 264 0.0 0.0 0.00 0.00 0.02 85 1011.7
20260505064506 61 264 0.0 0.0 0.00 0.00 0.01 83 1012.1
20260505063005 61 264 0.0 0.0 0.00 0.00 0.00 81 1012.1
20260505061514 61 264 0.0 0.0 0.00 0.00 0.00 79 1012.1
20260505060002 61 264 0.0 0.0 0.00 0.00 0.00 79 1012.1
20260505054502 61 264 0.0 0.0 0.00 0.00 0.00 79 1012.2
20260505053000 60 264 0.0 0.0 0.00 0.00 0.00 78 1012.4
20260505051600 60 264 0.0 0.0 0.00 0.00 0.00 78 1012.6
20260505041523 62 264 0.0 0.0 0.00 0.00 0.00 74 1012.5
20260505040019 62 264 0.0 0.0 0.00 0.00 0.00 75 1012.3
20260505034518 62 264 0.0 0.0 0.00 0.00 0.00 75 1012.2
20260505033014 62 264 0.0 0.0 0.00 0.00 0.00 74 1012.2
20260505031513 63 264 0.0 0.0 0.00 0.00 0.00 73 1012.0
20260505030012 63 264 0.0 0.0 0.00 0.00 0.00 73 1012.1
20260505024510 63 264 0.0 0.0 0.00 0.00 0.00 73 1011.7
20260505023012 64 264 0.0 0.0 0.00 0.00 0.00 72 1011.7
20260505021507 64 230 0.0 0.0 0.00 0.00 0.00 70 1011.8
20260505020006 65 247 0.0 0.0 0.00 0.00 0.00 70 1011.8
20260505014505 64 247 0.0 0.0 0.00 0.00 0.00 69 1011.8
20260505013003 66 246 0.0 0.0 0.00 0.00 0.00 69 1012.2